This is the latest recevied weather packets stored in our database for station/object KE8CZD. If no packets are shown the sender has not sent any weather packets the latest 10 day(s).
| Time | Temp. | Humidity | Pressure | Rain* | Wind** | Luminosity | Snow |
|---|---|---|---|---|---|---|---|
| 1777919084 | 23.89° C | 21% | 996.7 hPa | 0 mm | - | - | - |
| 1777918724 | 23.89° C | 21% | 996.7 hPa | 0 mm | - | - | - |
| 1777918364 | 23.89° C | 21% | 996.8 hPa | 0 mm | - | - | - |
| 1777918004 | 24.44° C | 22% | 996.9 hPa | 0 mm | - | - | - |
| 1777917644 | 23.89° C | 22% | 996.7 hPa | 0 mm | - | - | - |
| 1777917284 | 23.89° C | 25% | 997 hPa | 0 mm | - | - | - |
| 1777916924 | 23.89° C | 27% | 997.1 hPa | 0 mm | - | - | - |
| 1777916564 | 23.33° C | 25% | 997.1 hPa | 0 mm | - | - | - |
| 1777916205 | 23.33° C | 24% | 0 hPa | 0 mm | - | - | - |
| 1777915844 | 23.33° C | 25% | 997.6 hPa | 0 mm | - | - | - |
| 1777915484 | 23.33° C | 27% | 997.8 hPa | 0 mm | - | - | - |
| 1777915124 | 23.33° C | 28% | 997.8 hPa | 0 mm | - | - | - |
| 1777914765 | 23.33° C | 29% | 997.8 hPa | 0 mm | - | - | - |
| 1777914404 | 22.78° C | 29% | 997.9 hPa | 0 mm | - | - | - |
| 1777914044 | 22.78° C | 29% | 998 hPa | 0 mm | - | - | - |
| 1777913686 | 22.78° C | 28% | 998.3 hPa | 0 mm | - | - | - |
| 1777913324 | 22.78° C | 31% | 998.3 hPa | 0 mm | - | - | - |
| 1777912964 | 22.22° C | 29% | 998.4 hPa | 0 mm | - | - | - |
| 1777912604 | 22.22° C | 29% | 998.5 hPa | 0 mm | - | - | - |
| 1777912244 | 22.22° C | 29% | 998.7 hPa | 0 mm | - | - | - |
| 1777911885 | 21.67° C | 30% | 998.8 hPa | 0 mm | - | - | - |
| 1777911524 | 21.11° C | 30% | 998.9 hPa | 0 mm | - | - | - |
| 1777911261 | 21.11° C | 30% | 998.8 hPa | 0 mm | - | - | - |
| 1777911164 | 21.11° C | 30% | 998.8 hPa | 0 mm | - | - | - |
| 1777910804 | 21.11° C | 31% | 998.9 hPa | 0 mm | - | - | - |
* Rain latest hour (hover to see other rain measurements)
** Current wind speed in m/s (hover to see current wind gust speed)